Location: Ladrillo (historical)
(32.8195°N, 117.2231°W)
Time: 03:47:45
(UTC+00:00)

Cosmos 1400 Rocket - Pass Details

Date: 29 October 2020
Orbit: 521 x 568 km, 81.2° (Epoch: 26 November)

Event Time Altitude Azimuth Distance (km) Brightness Sun altitude
Rises 12:45:56 0° 351° (N) 2,679 6.2 -17.1°
Reaches altitude 10° 12:48:06 10° 351° (N) 1,778 5.3 -16.6°
Maximum altitude 12:52:01 85° 263° (W) 532 2.6 -15.8°
Drops below altitude 10° 12:55:51 10° 175° (S) 1,750 5.5 -15.0°
Sets 12:57:58 0° 175° (S) 2,631 6.5 -14.6°
